Home   Weather   Freistadt   Past weeks

Flag for Austria Past Weather in Freistadt, Upper Austria, Austria — Yesterday and Last 2 Weeks

Now
44 °F

Quite cool.


Feels Like: 44 °F
Forecast: 36 / 41 °F
Wind: 2 mph from Northeast

Location: Rohrbach

Current Time: Apr 26, 2017 at 4:34:56 am

Latest Report: Apr 26, 2017 at 3:00 am


Visibility: N/A

Pressure: 29.72 "Hg (27.74 "Hg at 565m altitude)

Humidity: 80%

Dew Point: 38 °F

Location of FreistadtLocation

Past Weather in Freistadt — Graph

°F

Freistadt Temperature Yesterday

Maximum temperature yesterday: 58 °F (at 3:00 pm)
Minimum temperature yesterday: 36 °F (at 5:00 am)
Average temperature yesterday: 47 °F

High & Low Weather Summary for the Past Weeks

 TemperatureHumidityPressure
High58 °F (Apr 25, 3:00 pm)95% (Apr 18, 3:00 am)30.58 "Hg (Apr 18, 3:00 am)
Low24 °F (Apr 21, 6:00 am)39% (Apr 21, 4:00 pm)29.72 "Hg (Apr 25, 3:00 pm)
Average42 °F71%30.12 "Hg
* Reported Apr 11 4:00 am — Apr 26 2:00 am, Freistadt, Weather by CustomWeather, © 2017

Note: Actual official high and low records may vary slightly from our data, if they occured in-between our weather recording intervals... More about our weather records

Advertising

Freistadt Weather History for the Previous 24 Hours

Scroll right to see more
 ConditionsComfort  
Time TempWeatherWind HumidityBarometerVisibility
2:00 am
Wed, Apr 26
44 °FQuite cool.3 mph80%29.74 "HgN/A
1:00 am45 °FQuite cool.2 mph81%29.77 "HgN/A
12:00 am46 °FCool.3 mph85%29.77 "HgN/A
11:00 pm
Tue, Apr 25
47 °FCool.2 mph86%29.77 "HgN/A
10:00 pm48 °FCool.1 mph87%29.76 "HgN/A
9:00 pm49 °FFog.2 mph87%29.76 "HgN/A
8:00 pm49 °FCool.1 mph84%29.74 "HgN/A
7:00 pm50 °FSprinkles. Cloudy.1 mph76%29.72 "HgN/A
6:00 pm53 °FCool.2 mph65%29.73 "HgN/A
5:00 pm56 °FRefreshingly cool.5 mph58%29.72 "HgN/A
4:00 pm57 °FRefreshingly cool.5 mph56%29.72 "HgN/A
3:00 pm58 °FRefreshingly cool.2 mph58%29.72 "HgN/A
2:00 pm54 °FCool.5 mph64%29.76 "HgN/A
1:00 pm53 °FCool.3 mph66%29.77 "HgN/A
12:00 pm54 °FCool.3 mph65%29.78 "HgN/A
11:00 am58 °FRefreshingly cool.3 mph56%29.75 "HgN/A
10:00 am51 °FCool.2 mph63%29.76 "HgN/A
9:00 am47 °FCool.1 mph76%29.79 "HgN/A
8:00 am42 °FQuite cool.1 mph82%29.80 "HgN/A
7:00 am38 °FChilly.1 mph85%29.82 "HgN/A
6:00 am36 °FChilly.No wind82%29.82 "HgN/A
5:00 am36 °FChilly.No wind82%29.83 "HgN/A
4:00 am37 °FChilly.No wind81%29.85 "HgN/A
Weather by CustomWeather, © 2017

See weather overviewHow to use our weather pages